This is the latest recevied weather packets stored in our database for station/object N7WSS. If no packets are shown the sender has not sent any weather packets the latest 10 day(s).
| Time | Temp. | Humidity | Pressure | Rain* | Wind** | Luminosity | Snow |
|---|---|---|---|---|---|---|---|
| 1787417826 | 35° C | 33% | 1016.9 hPa | 0 mm | - | - | - |
| 1787417522 | 35° C | 34% | 1017.1 hPa | 0 mm | - | - | - |
| 1787417217 | 35° C | 35% | 1017.1 hPa | 0 mm | - | - | - |
| 1787416913 | 34.44° C | 34% | 1016.8 hPa | 0 mm | - | - | - |
| 1787416608 | 34.44° C | 35% | 1016.8 hPa | 0 mm | - | - | - |
| 1787416304 | 33.89° C | 35% | 1016.7 hPa | 0 mm | - | - | - |
| 1787416004 | 33.33° C | 37% | 1016.9 hPa | 0 mm | - | - | - |
| 1787415698 | 33.33° C | 36% | 1016.9 hPa | 0 mm | - | - | - |
| 1787415392 | 33.33° C | 36% | 1016.9 hPa | 0 mm | - | - | - |
| 1787415088 | 32.78° C | 38% | 1016.7 hPa | 0 mm | - | - | - |
| 1787414784 | 33.33° C | 38% | 1016.8 hPa | 0 mm | - | - | - |
| 1787414479 | 33.33° C | 37% | 1016.9 hPa | 0 mm | - | - | - |
| 1787414178 | 32.78° C | 38% | 1016.6 hPa | 0 mm | - | - | - |
| 1787413877 | 32.78° C | 37% | 1016.8 hPa | 0 mm | - | - | - |
| 1787413573 | 31.67° C | 38% | 1016.8 hPa | 0 mm | - | - | - |
| 1787413272 | 31.67° C | 38% | 1016.8 hPa | 0 mm | - | - | - |
| 1787412968 | 31.67° C | 39% | 1016.7 hPa | 0 mm | - | - | - |
| 1787412663 | 31.67° C | 40% | 1016.8 hPa | 0 mm | - | - | - |
| 1787412363 | 31.67° C | 40% | 1016.7 hPa | 0 mm | - | - | - |
| 1787412059 | 31.11° C | 41% | 1016.6 hPa | 0 mm | - | - | - |
| 1787411757 | 31.11° C | 41% | 1016.6 hPa | 0 mm | - | - | - |
| 1787411452 | 30.56° C | 43% | 1016.6 hPa | 0 mm | - | - | - |
| 1787411147 | 30.56° C | 43% | 1016.6 hPa | 0 mm | - | - | - |
| 1787410843 | 30° C | 43% | 1016.5 hPa | 0 mm | - | - | - |
| 1787410538 | 30° C | 45% | 1016.2 hPa | 0 mm | - | - | - |
* Rain latest hour (hover to see other rain measurements)
** Current wind speed in m/s (hover to see current wind gust speed)